Location: Unspecified
(0.0000°N, 0.0000°E)
Time: 00:03:44
(UTC+00:00)

N. Korean satellite - Pass Details

Date: 17 February 2020
Orbit: 456 x 505 km, 97.2° (Epoch: 26 February)

Event Time Altitude Azimuth Distance (km) Brightness Sun altitude
Rises 05:27:34 0° 7° (N) 2,584 10.2 -11.4°
Reaches altitude 10° 05:29:39 10° 6° (N) 1,699 9.3 -10.8°
Maximum altitude 05:33:18 72° 281° (WNW) 525 6.5 -10.0°
Drops below altitude 10° 05:36:56 10° 196° (SSW) 1,688 9.3 -9.1°
Sets 05:39:00 0° 194° (SSW) 2,565 10.2 -8.6°
